Location: *
(51.2167°N, 10.0667°E)
Time: 17:39:03
(UTC+00:00)

COSMO-SKYMED 1 - Pass Details

Date: 12 December 2019
Orbit: 621 x 623 km, 97.9° (Epoch: 28 January)

Event Time Altitude Azimuth Distance (km) Brightness Sun altitude
Exits shadow 16:29:30 16° 62° (ENE) 1,645 4.1 -11.3°
Maximum altitude 16:31:08 19° 90° (E) 1,486 4.0 -11.5°
Drops below altitude 10° 16:34:16 10° 137° (SE) 1,992 5.0 -12.0°
Sets 16:36:59 0° 155° (SSE) 2,892 6.0 -12.4°
